Location: Newark
(50.1395°N, 5.5234°W)
Time: 21:38:54
(UTC+00:00)

ISS - Pass Details

Date: 10 March 2021
Orbit: 418 x 422 km, 51.6° (Epoch: 16 April)

Event Time Altitude Azimuth Distance (km) Brightness Sun altitude
Exits shadow 04:45:33 45° 163° (SSE) 582 -3.1 -20.0°
Drops below altitude 10° 04:48:12 10° 127° (SE) 1,495 -0.5 -19.5°
Sets 04:50:19 0° 123° (ESE) 2,356 0.6 -19.2°
